Regional Weather Roundup
Issued by NWS

Home | Current Version | Previous Version | Graphics & Text | Print | Product List | Glossary On
Versions: 1 2 3 4 5 6 7 8 9 10 11 12 13 14 15 16 17 18 19 20 21 22 23 24 25 26 27 28 29 30 31 32 33 34 35 36 37 38 39 40 41 42 43 44 45 46 47 48 49 50
000
ASUS43 KBIS 271701
RWRND

NORTH DAKOTA REGIONAL WEATHER ROUNDUP
NATIONAL WEATHER SERVICE BISMARCK ND
1100 AM CST TUE JAN 27 2015

NOTE: "FAIR" INDICATES FEW OR NO CLOUDS BELOW 12,000 FEET WITH NO
SIGNIFICANT WEATHER AND/OR OBSTRUCTIONS TO VISIBILITY.


NDZ001>003-009>011-017-271800-
NORTHWEST NORTH DAKOTA

CITY           SKY/WX    TMP DP  RH WIND       PRES   REMARKS
WILLISTON      MOSUNNY   37  32  82 S8        29.84S
MINOT          MOSUNNY   38  32  79 SE5       29.82F
MINOT AFB      MOSUNNY   35  35  99 S8        29.82F
$$

NDZ018>021-031>035-040>046-271800-
SOUTHWEST NORTH DAKOTA

CITY           SKY/WX    TMP DP  RH WIND       PRES   REMARKS
BISMARCK       SUNNY     39  32  76 S9        29.90F
DICKINSON      MOSUNNY   50  34  54 W13       29.85R
GARRISON         N/A     35  32  88 S6        29.84F
HETTINGER ARPT MOSUNNY   49  35  58 W6        29.90R
$$

NDZ004>008-012>016-024-026-027-054-271800-
NORTHEAST NORTH DAKOTA

CITY           SKY/WX    TMP DP  RH WIND       PRES   REMARKS
GRAND FORKS    FOG       28  27  96 S12       30.04S VSB 1   WCI  18
GRND FRKS AFB  CLOUDY    28  27  95 S9        30.03S FOG     WCI  19
DEVILS LAKE    SUNNY     32  30  93 S14       29.92F
$$

NDZ022-023-025-028>030-036>039-047>053-271800-
SOUTHEAST NORTH DAKOTA

CITY           SKY/WX    TMP DP  RH WIND       PRES   REMARKS
FARGO          CLOUDY    30  27  88 SE17      30.08S FOG     WCI  18
JAMESTOWN      SUNNY     35  32  88 S15       29.96S
$$




USA.gov is the U.S. government's official web portal to all federal, state and local government web resources and services.